Terug naar catalogus

OPS 4682 DEB

ActiefPO
NORAD 38360·DEBRIS·🇺🇸 United States

Gelanceerd Apr 3, 1965 vanaf Vandenberg Space Force Base

Loading…

Volgende Passages (komende 24 uur)

TLE

VersSource: Space-Track

Epoch: Sep 12, 2026, 17:23 UTC

1 38360U 65027BM  26255.72442273 -.00000633  00000-0 -20999-2 0  9996
2 38360  90.2439   6.7501 0032526 358.9218   1.1829 13.00847888676201

Volg OPS 4682 DEB in realtime met AllMySat

Download on the App Store